CDT,Max TemperatureF,Mean TemperatureF,Min TemperatureF,Max Dew PointF,MeanDew PointF,Min DewpointF,Max Humidity, Mean Humidity, Min Humidity, Max Sea Level PressureIn, Mean Sea Level PressureIn, Min Sea Level PressureIn, Max VisibilityMiles, Mean VisibilityMiles, Min VisibilityMiles, Max Wind SpeedMPH, Mean Wind SpeedMPH, Max Gust SpeedMPH,PrecipitationIn, CloudCover, Events, WindDirDegrees
2012-9-1,89,78,68,68,63,56,85,63,39,30.05,30.02,29.98,10,10,7,16,8,22,0.00,1,,51
2012-9-2,93,76,61,67,61,55,82,60,36,30.01,29.96,29.91,10,10,7,8,4,,0.00,0,,103
2012-9-3,81,76,70,72,68,64,87,79,68,30.01,29.94,29.89,10,9,4,8,4,,0.13,1,Rain,168
2012-9-4,99,84,69,72,67,58,89,62,26,29.93,29.86,29.76,10,9,2,10,4,16,0.00,0,,189
2012-9-5,88,76,65,70,59,49,88,61,27,29.95,29.86,29.78,10,10,4,24,10,37,0.29,1,Rain,314
2012-9-6,86,72,57,54,47,39,76,45,19,30.03,29.95,29.85,10,10,10,13,6,18,0.00,0,,101
2012-9-7,74,65,57,63,56,45,89,71,39,30.07,29.94,29.78,10,10,2,20,10,33,0.66,3,Rain,349
2012-9-8,82,66,51,48,42,33,81,48,17,30.11,30.04,29.89,10,10,10,20,9,31,0.00,0,,295
2012-9-9,77,64,51,51,47,41,83,57,28,30.23,30.15,30.06,10,10,7,12,7,16,0.00,0,,349
2012-9-10,85,68,52,51,47,40,84,50,20,30.17,30.08,29.97,10,10,10,20,7,29,0.00,0,,177
2012-9-11,95,78,62,52,46,35,67,38,12,29.99,29.95,29.90,10,10,10,22,10,29,0.00,0,,185
2012-9-12,78,66,55,62,54,38,89,59,35,30.30,30.09,29.96,10,10,4,25,9,32,0.21,4,Rain,19
2012-9-13,66,59,52,52,50,49,89,76,55,30.41,30.36,30.29,10,10,4,17,9,25,0.58,2,Rain,355
2012-9-14,81,66,51,51,44,31,88,53,16,30.38,30.34,30.28,10,10,10,13,7,20,0.00,0,,216
2012-9-15,81,66,50,48,43,36,81,46,20,30.30,30.22,30.12,10,10,10,14,7,20,0.00,0,,197
2012-9-16,80,66,52,60,54,45,86,64,43,30.12,30.03,29.93,10,10,10,14,6,17,0.00,1,,201
2012-9-17,67,60,54,60,49,35,90,70,33,30.03,29.97,29.92,10,9,3,20,9,29,0.07,3,Rain,319
2012-9-18,67,55,43,43,35,25,83,49,21,30.09,30.03,29.98,10,10,10,17,9,22,0.00,1,,305
2012-9-19,87,69,51,46,37,26,62,37,16,29.97,29.87,29.75,10,10,10,21,10,34,0.00,0,,226
2012-9-20,72,60,49,37,29,16,59,34,13,30.02,29.98,29.95,10,10,10,20,7,25,0.00,0,,281
2012-9-21,72,62,52,43,38,29,66,43,23,29.95,29.87,29.82,10,10,10,17,6,25,0.00,3,,36
2012-9-22,63,52,41,37,33,26,64,47,30,30.28,30.16,29.89,10,10,10,21,11,29,0.00,1,,325
2012-9-23,65,50,37,35,27,20,72,44,18,30.37,30.29,30.23,10,10,10,9,6,16,0.00,0,,338
2012-9-24,79,60,41,42,31,25,66,38,14,30.23,30.04,29.88,10,10,10,13,6,20,0.00,0,,195
2012-9-25,86,68,51,50,40,30,82,43,14,29.96,29.86,29.80,10,10,10,10,4,,0.00,0,,321
2012-9-26,76,62,49,38,31,18,63,37,12,30.16,30.06,29.95,10,10,10,10,7,17,0.00,0,,4
2012-9-27,75,59,43,44,36,27,76,46,17,30.24,30.19,30.15,10,10,7,13,5,,0.00,0,,105
2012-9-28,77,61,45,42,36,32,74,44,18,30.25,30.19,30.14,10,10,7,8,3,,0.00,0,,129
2012-9-29,83,66,50,44,39,33,73,40,16,30.19,30.12,30.04,10,10,10,10,4,,0.00,0,,286
2012-9-30,85,70,57,42,37,30,54,34,14,30.04,29.97,29.91,10,10,5,12,6,,0.00,0,,350